| time (UTC) | temp F | wind direction | speed MPH | gust MPH | rain 1hr in | rain 24hr in | rain mn in | humidity % | barometer mb |
| 20260906223544 | 86 | 203 | 0.0 | 0.0 | 0.00 | 0.00 | 0.00 | 64 | 1010.5 |
| 20260906223042 | 86 | 214 | 0.0 | 1.0 | 0.00 | 0.00 | 0.00 | 64 | 1010.5 |
| 20260906222537 | 86 | 212 | 0.0 | 0.0 | 0.00 | 0.00 | 0.00 | 68 | 1010.6 |
| 20260906222034 | 86 | 283 | 2.0 | 2.0 | 0.00 | 0.00 | 0.00 | 64 | 1010.3 |
| 20260906221533 | 87 | 219 | 0.0 | 0.0 | 0.00 | 0.00 | 0.00 | 64 | 1010.4 |
| 20260906221029 | 87 | 280 | 1.0 | 1.0 | 0.00 | 0.00 | 0.00 | 65 | 1010.3 |
| 20260906220523 | 87 | 205 | 0.0 | 0.0 | 0.00 | 0.00 | 0.00 | 65 | 1010.3 |
| 20260906220019 | 87 | 229 | 1.0 | 1.0 | 0.00 | 0.00 | 0.00 | 64 | 1010.2 |
| 20260906215517 | 87 | 215 | 0.0 | 0.0 | 0.00 | 0.00 | 0.00 | 66 | 1010.1 |
| 20260906215015 | 88 | 255 | 0.0 | 0.0 | 0.00 | 0.00 | 0.00 | 66 | 1010.3 |
| 20260906214514 | 88 | 214 | 0.0 | 0.0 | 0.00 | 0.00 | 0.00 | 64 | 1010.2 |
| 20260906214009 | 90 | 301 | 2.0 | 2.0 | 0.00 | 0.00 | 0.00 | 63 | 1010.2 |
| 20260906213504 | 90 | 219 | 0.0 | 0.0 | 0.00 | 0.00 | 0.00 | 62 | 1010.4 |
| 20260906213004 | 90 | 196 | 0.0 | 0.0 | 0.00 | 0.00 | 0.00 | 63 | 1010.1 |
| 20260906212456 | 90 | 219 | 1.0 | 1.0 | 0.00 | 0.00 | 0.00 | 65 | 1010.3 |
| 20260906211951 | 90 | 303 | 1.0 | 2.0 | 0.00 | 0.00 | 0.00 | 60 | 1010.1 |
| 20260906211446 | 89 | 219 | 0.0 | 0.0 | 0.00 | 0.00 | 0.00 | 63 | 1010.0 |
| 20260906210942 | 89 | 211 | 0.0 | 0.0 | 0.00 | 0.00 | 0.00 | 64 | 1010.0 |
| 20260906210437 | 89 | 221 | 0.0 | 0.0 | 0.00 | 0.00 | 0.00 | 63 | 1010.0 |
| 20260906205930 | 89 | 207 | 0.0 | 0.0 | 0.00 | 0.00 | 0.00 | 62 | 1009.9 |
| 20260906205427 | 89 | 224 | 0.0 | 0.0 | 0.00 | 0.00 | 0.00 | 64 | 1010.2 |
| 20260906204923 | 89 | 209 | 0.0 | 0.0 | 0.00 | 0.00 | 0.00 | 65 | 1009.9 |
| 20260906204422 | 89 | 238 | 0.0 | 0.0 | 0.00 | 0.00 | 0.00 | 64 | 1010.1 |
| 20260906203921 | 89 | 220 | 0.0 | 0.0 | 0.00 | 0.00 | 0.00 | 64 | 1010.0 |
| 20260906203417 | 90 | 201 | 0.0 | 0.0 | 0.00 | 0.00 | 0.00 | 64 | 1010.1 |
| 20260906202914 | 91 | 222 | 0.0 | 0.0 | 0.00 | 0.00 | 0.00 | 61 | 1010.1 |
| 20260906202413 | 91 | 202 | 0.0 | 0.0 | 0.00 | 0.00 | 0.00 | 62 | 1010.1 |
| 20260906201908 | 91 | 239 | 0.0 | 0.0 | 0.00 | 0.00 | 0.00 | 57 | 1010.0 |
| 20260906201402 | 92 | 215 | 0.0 | 0.0 | 0.00 | 0.00 | 0.00 | 56 | 1010.1 |
| 20260906200858 | 91 | 209 | 0.0 | 0.0 | 0.00 | 0.00 | 0.00 | 58 | 1010.3 |
| 20260906200354 | 91 | 269 | 0.0 | 0.0 | 0.00 | 0.00 | 0.00 | 62 | 1010.3 |
| 20260906195854 | 91 | 211 | 0.0 | 0.0 | 0.00 | 0.00 | 0.00 | 59 | 1010.0 |
| 20260906195350 | 91 | 222 | 0.0 | 0.0 | 0.00 | 0.00 | 0.00 | 60 | 1010.2 |
| 20260906194846 | 89 | 228 | 0.0 | 0.0 | 0.00 | 0.00 | 0.00 | 63 | 1010.3 |
| 20260906194342 | 89 | 211 | 0.0 | 0.0 | 0.00 | 0.00 | 0.00 | 64 | 1010.3 |
| 20260906193836 | 90 | 209 | 0.0 | 0.0 | 0.00 | 0.00 | 0.00 | 64 | 1010.3 |
| 20260906193331 | 91 | 8 | 1.0 | 2.0 | 0.00 | 0.00 | 0.00 | 60 | 1010.4 |
| 20260906192822 | 91 | 250 | 0.0 | 0.0 | 0.00 | 0.00 | 0.00 | 61 | 1010.5 |
| 20260906192321 | 91 | 225 | 0.0 | 0.0 | 0.00 | 0.00 | 0.00 | 60 | 1010.4 |
| 20260906191821 | 91 | 238 | 0.0 | 0.0 | 0.00 | 0.00 | 0.00 | 63 | 1010.5 |
| 20260906191315 | 91 | 194 | 0.0 | 0.0 | 0.00 | 0.00 | 0.00 | 61 | 1010.4 |
| 20260906190810 | 91 | 227 | 0.0 | 0.0 | 0.00 | 0.00 | 0.00 | 62 | 1010.5 |
| 20260906190309 | 91 | 253 | 3.0 | 5.0 | 0.00 | 0.00 | 0.00 | 60 | 1010.8 |
| 20260906185803 | 90 | 225 | 0.0 | 0.0 | 0.00 | 0.00 | 0.00 | 62 | 1010.7 |
| 20260906185305 | 91 | 228 | 0.0 | 0.0 | 0.00 | 0.00 | 0.00 | 64 | 1010.8 |
| 20260906184757 | 90 | 252 | 0.0 | 0.0 | 0.00 | 0.00 | 0.00 | 63 | 1010.9 |
| 20260906184252 | 90 | 271 | 0.0 | 0.0 | 0.00 | 0.00 | 0.00 | 61 | 1011.1 |
| 20260906183747 | 91 | 299 | 0.0 | 0.0 | 0.00 | 0.00 | 0.00 | 61 | 1010.9 |
| 20260906183244 | 90 | 226 | 4.0 | 6.0 | 0.00 | 0.00 | 0.00 | 62 | 1010.9 |
| 20260906182738 | 90 | 267 | 3.0 | 3.0 | 0.00 | 0.00 | 0.00 | 64 | 1010.9 |
| 20260906182234 | 90 | 197 | 3.0 | 3.0 | 0.00 | 0.00 | 0.00 | 61 | 1011.1 |
| 20260906181729 | 90 | 258 | 1.0 | 3.0 | 0.00 | 0.00 | 0.00 | 63 | 1011.3 |
| 20260906181226 | 91 | 304 | 0.0 | 2.0 | 0.00 | 0.00 | 0.00 | 66 | 1011.1 |
| 20260906180725 | 90 | 244 | 1.0 | 1.0 | 0.00 | 0.00 | 0.00 | 65 | 1011.4 |
| 20260906180220 | 90 | 230 | 0.0 | 0.0 | 0.00 | 0.00 | 0.00 | 67 | 1011.3 |
| 20260906175718 | 90 | 234 | 0.0 | 0.0 | 0.00 | 0.00 | 0.00 | 69 | 1011.2 |
| 20260906175214 | 90 | 277 | 2.0 | 3.0 | 0.00 | 0.00 | 0.00 | 67 | 1011.3 |
| 20260906174712 | 90 | 194 | 0.0 | 0.0 | 0.00 | 0.00 | 0.00 | 66 | 1011.2 |
| 20260906174207 | 90 | 247 | 3.0 | 5.0 | 0.00 | 0.00 | 0.00 | 67 | 1011.3 |
| 20260906173702 | 89 | 248 | 0.0 | 1.0 | 0.00 | 0.00 | 0.00 | 70 | 1011.5 |
| 20260906173157 | 89 | 227 | 3.0 | 3.0 | 0.00 | 0.00 | 0.00 | 70 | 1011.5 |
| 20260906172657 | 89 | 216 | 0.0 | 0.0 | 0.00 | 0.00 | 0.00 | 69 | 1011.7 |
| 20260906172152 | 89 | 258 | 1.0 | 2.0 | 0.00 | 0.00 | 0.00 | 69 | 1011.7 |
| 20260906171652 | 89 | 285 | 3.0 | 3.0 | 0.00 | 0.00 | 0.00 | 68 | 1011.7 |
| 20260906171148 | 89 | 234 | 1.0 | 2.0 | 0.00 | 0.00 | 0.00 | 68 | 1011.7 |
| 20260906170644 | 89 | 236 | 0.0 | 1.0 | 0.00 | 0.00 | 0.00 | 69 | 1011.6 |
| 20260906170143 | 88 | 294 | 2.0 | 2.0 | 0.00 | 0.00 | 0.00 | 71 | 1011.8 |
| 20260906165639 | 88 | 221 | 0.0 | 0.0 | 0.00 | 0.00 | 0.00 | 71 | 1011.8 |
| 20260906165135 | 88 | 230 | 0.0 | 0.0 | 0.00 | 0.00 | 0.00 | 72 | 1011.8 |
| 20260906164633 | 87 | 223 | 0.0 | 0.0 | 0.00 | 0.00 | 0.00 | 72 | 1011.8 |
| 20260906164129 | 87 | 270 | 1.0 | 1.0 | 0.00 | 0.00 | 0.00 | 71 | 1012.0 |
| 20260906163625 | 87 | 217 | 0.0 | 0.0 | 0.00 | 0.00 | 0.00 | 72 | 1011.8 |
| 20260906163121 | 87 | 223 | 1.0 | 1.0 | 0.00 | 0.00 | 0.00 | 71 | 1011.9 |
| 20260906162618 | 87 | 225 | 0.0 | 0.0 | 0.00 | 0.00 | 0.00 | 73 | 1011.9 |
| 20260906162112 | 86 | 228 | 1.0 | 1.0 | 0.00 | 0.00 | 0.00 | 74 | 1012.1 |
| 20260906161607 | 86 | 271 | 1.0 | 1.0 | 0.00 | 0.00 | 0.00 | 73 | 1012.2 |
| 20260906161106 | 86 | 270 | 1.0 | 2.0 | 0.00 | 0.00 | 0.00 | 75 | 1012.1 |
| 20260906160605 | 86 | 305 | 1.0 | 2.0 | 0.00 | 0.00 | 0.00 | 76 | 1012.2 |
| 20260906160104 | 86 | 257 | 0.0 | 0.0 | 0.00 | 0.00 | 0.00 | 76 | 1012.0 |
| 20260906155601 | 85 | 239 | 0.0 | 1.0 | 0.00 | 0.00 | 0.00 | 76 | 1012.2 |
| 20260906155058 | 85 | 249 | 0.0 | 0.0 | 0.00 | 0.00 | 0.00 | 75 | 1012.0 |
| 20260906154553 | 85 | 259 | 0.0 | 0.0 | 0.00 | 0.00 | 0.00 | 76 | 1012.2 |
| 20260906154051 | 85 | 228 | 2.0 | 3.0 | 0.00 | 0.00 | 0.00 | 77 | 1012.1 |
| 20260906153550 | 84 | 232 | 0.0 | 0.0 | 0.00 | 0.00 | 0.00 | 78 | 1012.1 |
| 20260906153045 | 84 | 274 | 5.0 | 6.0 | 0.00 | 0.00 | 0.00 | 76 | 1012.0 |
| 20260906152544 | 84 | 240 | 0.0 | 0.0 | 0.00 | 0.00 | 0.00 | 78 | 1011.7 |
| 20260906152039 | 84 | 243 | 0.0 | 0.0 | 0.00 | 0.00 | 0.00 | 79 | 1012.1 |
| 20260906151534 | 84 | 232 | 0.0 | 0.0 | 0.00 | 0.00 | 0.00 | 79 | 1012.1 |
| 20260906151030 | 83 | 220 | 0.0 | 0.0 | 0.00 | 0.00 | 0.00 | 79 | 1012.0 |
| 20260906150525 | 83 | 259 | 1.0 | 1.0 | 0.00 | 0.00 | 0.00 | 78 | 1011.9 |
| 20260906150020 | 83 | 11 | 0.0 | 0.0 | 0.00 | 0.00 | 0.00 | 79 | 1012.1 |
| 20260906145519 | 83 | 223 | 0.0 | 0.0 | 0.00 | 0.00 | 0.00 | 79 | 1012.0 |
| 20260906145014 | 82 | 230 | 0.0 | 0.0 | 0.00 | 0.00 | 0.00 | 80 | 1011.9 |
| 20260906144503 | 82 | 261 | 0.0 | 0.0 | 0.00 | 0.00 | 0.00 | 79 | 1012.2 |
| 20260906143958 | 82 | 240 | 2.0 | 2.0 | 0.00 | 0.00 | 0.00 | 79 | 1012.0 |
| 20260906143453 | 82 | 231 | 0.0 | 0.0 | 0.00 | 0.00 | 0.00 | 81 | 1012.1 |
| 20260906142949 | 81 | 257 | 3.0 | 3.0 | 0.00 | 0.00 | 0.00 | 81 | 1012.1 |
| 20260906142449 | 81 | 225 | 0.0 | 0.0 | 0.00 | 0.00 | 0.00 | 82 | 1012.1 |
| 20260906141943 | 80 | 221 | 0.0 | 0.0 | 0.00 | 0.00 | 0.00 | 82 | 1011.9 |
| 20260906141437 | 80 | 244 | 0.0 | 1.0 | 0.00 | 0.00 | 0.00 | 83 | 1012.1 |
| 20260906140932 | 79 | 248 | 2.0 | 5.0 | 0.00 | 0.00 | 0.00 | 84 | 1012.3 |
| 20260906140427 | 79 | 249 | 0.0 | 0.0 | 0.00 | 0.00 | 0.00 | 85 | 1012.0 |
| 20260906135925 | 78 | 228 | 0.0 | 0.0 | 0.00 | 0.00 | 0.00 | 85 | 1012.1 |
| 20260906135424 | 78 | 223 | 0.0 | 0.0 | 0.00 | 0.00 | 0.00 | 87 | 1012.0 |
| 20260906134920 | 78 | 224 | 0.0 | 0.0 | 0.00 | 0.00 | 0.00 | 88 | 1012.3 |
| 20260906134415 | 77 | 212 | 0.0 | 0.0 | 0.00 | 0.00 | 0.00 | 88 | 1012.4 |
| 20260906133910 | 77 | 220 | 0.0 | 0.0 | 0.00 | 0.00 | 0.00 | 89 | 1012.2 |
| 20260906133406 | 77 | 240 | 0.0 | 0.0 | 0.00 | 0.00 | 0.00 | 89 | 1012.2 |
| 20260906132901 | 76 | 248 | 0.0 | 0.0 | 0.00 | 0.00 | 0.00 | 90 | 1012.5 |
| 20260906132356 | 76 | 223 | 0.0 | 0.0 | 0.00 | 0.00 | 0.00 | 91 | 1012.4 |
| 20260906131852 | 76 | 237 | 0.0 | 0.0 | 0.00 | 0.00 | 0.00 | 91 | 1012.3 |
| 20260906131347 | 75 | 232 | 0.0 | 0.0 | 0.00 | 0.00 | 0.00 | 92 | 1012.3 |
| 20260906130843 | 74 | 219 | 0.0 | 0.0 | 0.00 | 0.00 | 0.00 | 93 | 1012.8 |
| 20260906130342 | 74 | 220 | 0.0 | 0.0 | 0.00 | 0.00 | 0.00 | 95 | 1012.6 |
| 20260906125841 | 73 | 218 | 0.0 | 0.0 | 0.00 | 0.00 | 0.00 | 96 | 1012.6 |
| 20260906125338 | 73 | 217 | 0.0 | 0.0 | 0.00 | 0.00 | 0.00 | 97 | 1012.5 |
| 20260906124834 | 72 | 218 | 0.0 | 0.0 | 0.00 | 0.00 | 0.00 | 98 | 1012.4 |
| 20260906124330 | 72 | 218 | 0.0 | 0.0 | 0.00 | 0.00 | 0.00 | 98 | 1012.3 |
| 20260906123829 | 71 | 218 | 0.0 | 0.0 | 0.00 | 0.00 | 0.00 | 99 | 1012.3 |
| 20260906123324 | 71 | 218 | 0.0 | 0.0 | 0.00 | 0.00 | 0.00 | 99 | 1012.1 |
| 20260906122823 | 71 | 218 | 0.0 | 0.0 | 0.00 | 0.00 | 0.00 | 99 | 1012.0 |
| 20260906122318 | 71 | 218 | 0.0 | 0.0 | 0.00 | 0.00 | 0.00 | 99 | 1012.1 |
| 20260906121815 | 71 | 217 | 0.0 | 0.0 | 0.00 | 0.00 | 0.00 | 99 | 1012.1 |
| 20260906121311 | 71 | 217 | 0.0 | 0.0 | 0.00 | 0.00 | 0.00 | 99 | 1012.1 |
| 20260906120807 | 71 | 218 | 0.0 | 0.0 | 0.00 | 0.00 | 0.00 | 99 | 1011.9 |
| 20260906120303 | 71 | 218 | 0.0 | 0.0 | 0.00 | 0.00 | 0.00 | 99 | 1011.9 |
| 20260906115759 | 70 | 217 | 0.0 | 0.0 | 0.00 | 0.00 | 0.00 | 99 | 1011.9 |
| 20260906115254 | 70 | 216 | 0.0 | 0.0 | 0.00 | 0.00 | 0.00 | 99 | 1011.6 |
| 20260906114752 | 70 | 216 | 0.0 | 0.0 | 0.00 | 0.00 | 0.00 | 98 | 1011.8 |
| 20260906114242 | 70 | 216 | 0.0 | 0.0 | 0.00 | 0.00 | 0.00 | 98 | 1011.5 |
| 20260906113737 | 70 | 217 | 0.0 | 0.0 | 0.00 | 0.00 | 0.00 | 98 | 1011.6 |
| 20260906113237 | 71 | 217 | 0.0 | 0.0 | 0.00 | 0.00 | 0.00 | 98 | 1011.5 |
| 20260906112731 | 71 | 217 | 0.0 | 0.0 | 0.00 | 0.00 | 0.00 | 98 | 1011.4 |
| 20260906112227 | 71 | 218 | 0.0 | 0.0 | 0.00 | 0.00 | 0.00 | 98 | 1011.2 |
| 20260906111727 | 71 | 218 | 0.0 | 0.0 | 0.00 | 0.00 | 0.00 | 98 | 1011.4 |
| 20260906111221 | 71 | 217 | 0.0 | 0.0 | 0.00 | 0.00 | 0.00 | 98 | 1011.4 |
| 20260906110717 | 71 | 217 | 0.0 | 0.0 | 0.00 | 0.00 | 0.00 | 98 | 1011.2 |
| 20260906110213 | 71 | 217 | 0.0 | 0.0 | 0.00 | 0.00 | 0.00 | 97 | 1011.2 |
| 20260906105711 | 71 | 218 | 0.0 | 0.0 | 0.00 | 0.00 | 0.00 | 97 | 1010.9 |
| 20260906105207 | 71 | 213 | 0.0 | 0.0 | 0.00 | 0.00 | 0.00 | 97 | 1011.3 |
| 20260906104707 | 71 | 210 | 0.0 | 0.0 | 0.00 | 0.00 | 0.00 | 97 | 1011.2 |
| 20260906104201 | 71 | 210 | 0.0 | 0.0 | 0.00 | 0.00 | 0.00 | 98 | 1011.0 |
| 20260906103658 | 71 | 210 | 0.0 | 0.0 | 0.00 | 0.00 | 0.00 | 97 | 1011.0 |
| 20260906103154 | 71 | 211 | 0.0 | 0.0 | 0.00 | 0.00 | 0.00 | 97 | 1011.1 |
| 20260906102649 | 71 | 211 | 0.0 | 0.0 | 0.00 | 0.00 | 0.00 | 97 | 1010.9 |
| 20260906102148 | 72 | 211 | 0.0 | 0.0 | 0.00 | 0.00 | 0.00 | 97 | 1010.8 |
| 20260906101648 | 71 | 211 | 0.0 | 0.0 | 0.00 | 0.00 | 0.00 | 97 | 1010.9 |
| 20260906101143 | 71 | 210 | 0.0 | 0.0 | 0.00 | 0.00 | 0.00 | 97 | 1010.9 |
| 20260906100639 | 71 | 209 | 0.0 | 0.0 | 0.00 | 0.00 | 0.00 | 97 | 1011.0 |
| 20260906100133 | 72 | 209 | 0.0 | 0.0 | 0.00 | 0.00 | 0.00 | 97 | 1010.9 |
| 20260906095628 | 72 | 210 | 0.0 | 0.0 | 0.00 | 0.00 | 0.00 | 96 | 1010.9 |
| 20260906095124 | 72 | 210 | 0.0 | 0.0 | 0.00 | 0.00 | 0.00 | 96 | 1010.8 |
| 20260906094622 | 72 | 210 | 0.0 | 0.0 | 0.00 | 0.00 | 0.00 | 96 | 1010.9 |
| 20260906094118 | 72 | 210 | 0.0 | 0.0 | 0.00 | 0.00 | 0.00 | 95 | 1011.1 |
| 20260906093614 | 72 | 227 | 0.0 | 0.0 | 0.00 | 0.00 | 0.00 | 95 | 1011.1 |
| 20260906093108 | 72 | 209 | 0.0 | 0.0 | 0.00 | 0.00 | 0.00 | 95 | 1011.0 |
| 20260906092603 | 72 | 209 | 0.0 | 0.0 | 0.00 | 0.00 | 0.00 | 95 | 1010.9 |
| 20260906092059 | 72 | 209 | 0.0 | 0.0 | 0.00 | 0.00 | 0.00 | 95 | 1010.8 |
| 20260906091554 | 72 | 211 | 0.0 | 0.0 | 0.00 | 0.00 | 0.00 | 96 | 1010.9 |
| 20260906091051 | 72 | 211 | 0.0 | 0.0 | 0.00 | 0.00 | 0.00 | 96 | 1010.8 |
| 20260906090551 | 72 | 211 | 0.0 | 0.0 | 0.00 | 0.00 | 0.00 | 94 | 1010.6 |
| 20260906090046 | 73 | 211 | 0.0 | 0.0 | 0.00 | 0.00 | 0.00 | 94 | 1010.8 |
| 20260906085545 | 73 | 211 | 0.0 | 0.0 | 0.00 | 0.00 | 0.00 | 94 | 1010.7 |
| 20260906085044 | 73 | 209 | 0.0 | 0.0 | 0.00 | 0.00 | 0.00 | 94 | 1010.8 |
| 20260906084539 | 73 | 210 | 0.0 | 0.0 | 0.00 | 0.00 | 0.00 | 94 | 1010.5 |
| 20260906084038 | 73 | 211 | 0.0 | 0.0 | 0.00 | 0.00 | 0.00 | 94 | 1010.7 |
| 20260906083534 | 73 | 211 | 0.0 | 0.0 | 0.00 | 0.00 | 0.00 | 94 | 1010.7 |
| 20260906083033 | 73 | 208 | 0.0 | 0.0 | 0.00 | 0.00 | 0.00 | 94 | 1010.8 |
| 20260906082528 | 73 | 211 | 0.0 | 0.0 | 0.00 | 0.00 | 0.00 | 93 | 1010.6 |
| 20260906082024 | 73 | 207 | 0.0 | 0.0 | 0.00 | 0.00 | 0.00 | 93 | 1010.7 |
| 20260906081520 | 73 | 205 | 0.0 | 0.0 | 0.00 | 0.00 | 0.00 | 93 | 1010.7 |
| 20260906081016 | 73 | 206 | 0.0 | 0.0 | 0.00 | 0.00 | 0.00 | 92 | 1010.8 |
| 20260906080512 | 73 | 207 | 0.0 | 0.0 | 0.00 | 0.00 | 0.00 | 92 | 1010.7 |
| 20260906080008 | 74 | 208 | 0.0 | 0.0 | 0.00 | 0.00 | 0.00 | 93 | 1010.7 |
| 20260906075502 | 74 | 205 | 0.0 | 0.0 | 0.00 | 0.00 | 0.00 | 90 | 1010.6 |
| 20260906074956 | 74 | 207 | 0.0 | 0.0 | 0.00 | 0.00 | 0.00 | 89 | 1010.8 |
| 20260906074451 | 74 | 210 | 0.0 | 0.0 | 0.00 | 0.00 | 0.00 | 89 | 1010.7 |
| 20260906073949 | 74 | 207 | 0.0 | 0.0 | 0.00 | 0.00 | 0.00 | 90 | 1010.4 |
| 20260906073444 | 74 | 207 | 0.0 | 0.0 | 0.00 | 0.00 | 0.00 | 89 | 1010.6 |
| 20260906072941 | 74 | 206 | 0.0 | 0.0 | 0.00 | 0.00 | 0.00 | 89 | 1010.8 |
| 20260906072436 | 75 | 208 | 0.0 | 0.0 | 0.00 | 0.00 | 0.00 | 89 | 1010.6 |
| 20260906071932 | 75 | 206 | 0.0 | 0.0 | 0.00 | 0.00 | 0.00 | 88 | 1010.9 |
| 20260906071427 | 74 | 208 | 0.0 | 0.0 | 0.00 | 0.00 | 0.00 | 88 | 1010.9 |
| 20260906070923 | 74 | 207 | 0.0 | 0.0 | 0.00 | 0.00 | 0.00 | 90 | 1010.9 |
| 20260906070419 | 75 | 206 | 0.0 | 0.0 | 0.00 | 0.00 | 0.00 | 90 | 1010.8 |
| 20260906065915 | 75 | 206 | 0.0 | 0.0 | 0.00 | 0.00 | 0.00 | 89 | 1010.9 |
| 20260906065409 | 75 | 207 | 0.0 | 0.0 | 0.00 | 0.00 | 0.00 | 90 | 1010.9 |
| 20260906064905 | 75 | 205 | 0.0 | 0.0 | 0.00 | 0.00 | 0.00 | 90 | 1011.0 |
| 20260906064401 | 75 | 207 | 0.0 | 0.0 | 0.00 | 0.00 | 0.00 | 91 | 1010.7 |
| 20260906063900 | 75 | 206 | 0.0 | 1.0 | 0.00 | 0.00 | 0.00 | 92 | 1011.0 |
| 20260906063356 | 75 | 205 | 0.0 | 0.0 | 0.00 | 0.00 | 0.00 | 91 | 1010.8 |
| 20260906062851 | 75 | 207 | 0.0 | 0.0 | 0.00 | 0.00 | 0.00 | 92 | 1011.1 |
| 20260906062350 | 75 | 206 | 0.0 | 0.0 | 0.00 | 0.00 | 0.00 | 92 | 1010.9 |
| 20260906061846 | 75 | 209 | 0.0 | 0.0 | 0.00 | 0.00 | 0.00 | 92 | 1011.0 |
| 20260906061342 | 75 | 202 | 0.0 | 0.0 | 0.00 | 0.00 | 0.00 | 92 | 1011.5 |
| 20260906060836 | 74 | 201 | 0.0 | 0.0 | 0.00 | 0.00 | 0.00 | 93 | 1011.5 |
| 20260906060335 | 74 | 204 | 0.0 | 0.0 | 0.00 | 0.00 | 0.00 | 95 | 1011.6 |
| 20260906055830 | 74 | 206 | 0.0 | 0.0 | 0.00 | 0.00 | 0.00 | 94 | 1011.6 |
| 20260906055326 | 74 | 203 | 0.0 | 0.0 | 0.00 | 0.00 | 0.00 | 94 | 1011.6 |
| 20260906054820 | 74 | 207 | 0.0 | 0.0 | 0.00 | 0.00 | 0.00 | 96 | 1011.6 |
| 20260906054315 | 74 | 208 | 0.0 | 0.0 | 0.00 | 0.00 | 0.00 | 95 | 1011.8 |
| 20260906053812 | 74 | 209 | 0.0 | 0.0 | 0.00 | 0.00 | 0.00 | 94 | 1011.7 |
| 20260906053307 | 74 | 209 | 0.0 | 0.0 | 0.00 | 0.00 | 0.00 | 94 | 1011.8 |
| 20260906052802 | 74 | 196 | 0.0 | 0.0 | 0.00 | 0.00 | 0.00 | 94 | 1011.9 |
| 20260906052259 | 75 | 204 | 0.0 | 0.0 | 0.00 | 0.00 | 0.00 | 95 | 1012.0 |
| 20260906051756 | 75 | 202 | 0.0 | 0.0 | 0.00 | 0.00 | 0.00 | 94 | 1011.9 |
| 20260906051255 | 74 | 206 | 0.0 | 0.0 | 0.00 | 0.00 | 0.00 | 94 | 1011.8 |
| 20260906050750 | 74 | 204 | 0.0 | 0.0 | 0.00 | 0.00 | 0.00 | 95 | 1011.6 |
| 20260906050246 | 73 | 203 | 0.0 | 0.0 | 0.00 | 0.00 | 0.00 | 97 | 1011.8 |
| 20260906045744 | 73 | 206 | 0.0 | 0.0 | 0.00 | 0.22 | 0.22 | 98 | 1011.7 |
| 20260906045239 | 74 | 207 | 0.0 | 0.0 | 0.00 | 0.22 | 0.22 | 99 | 1011.7 |
| 20260906044735 | 74 | 216 | 0.0 | 0.0 | 0.00 | 0.22 | 0.22 | 99 | 1011.7 |
| 20260906044230 | 75 | 212 | 0.0 | 0.0 | 0.00 | 0.22 | 0.22 | 99 | 1011.5 |
| 20260906043726 | 75 | 224 | 0.0 | 0.0 | 0.00 | 0.22 | 0.22 | 99 | 1011.7 |
| 20260906043222 | 75 | 212 | 0.0 | 0.0 | 0.00 | 0.22 | 0.22 | 99 | 1011.6 |
| 20260906042721 | 75 | 254 | 0.0 | 0.0 | 0.00 | 0.22 | 0.22 | 99 | 1011.9 |
| 20260906042220 | 75 | 215 | 0.0 | 0.0 | 0.00 | 0.22 | 0.22 | 99 | 1011.9 |
| 20260906041716 | 75 | 258 | 0.0 | 0.0 | 0.00 | 0.22 | 0.22 | 99 | 1011.9 |
| 20260906041211 | 75 | 231 | 1.0 | 2.0 | 0.00 | 0.22 | 0.22 | 99 | 1011.7 |
| 20260906040707 | 74 | 235 | 0.0 | 0.0 | 0.00 | 0.22 | 0.22 | 99 | 1011.3 |
| 20260906040201 | 75 | 225 | 0.0 | 0.0 | 0.00 | 0.22 | 0.22 | 99 | 1011.2 |
| 20260906035657 | 74 | 227 | 0.0 | 0.0 | 0.00 | 0.22 | 0.22 | 99 | 1011.2 |
| 20260906035153 | 75 | 224 | 0.0 | 0.0 | 0.00 | 0.22 | 0.22 | 99 | 1011.1 |
| 20260906034647 | 74 | 224 | 0.0 | 0.0 | 0.00 | 0.22 | 0.22 | 99 | 1011.3 |
| 20260906034142 | 75 | 228 | 0.0 | 0.0 | 0.00 | 0.22 | 0.22 | 99 | 1011.4 |
| 20260906033638 | 75 | 220 | 0.0 | 0.0 | 0.00 | 0.22 | 0.22 | 99 | 1011.5 |
| 20260906033138 | 75 | 220 | 0.0 | 0.0 | 0.00 | 0.22 | 0.22 | 99 | 1011.7 |
| 20260906032635 | 75 | 228 | 0.0 | 0.0 | 0.00 | 0.22 | 0.22 | 99 | 1011.7 |
| 20260906032134 | 75 | 213 | 0.0 | 0.0 | 0.00 | 0.22 | 0.22 | 99 | 1011.6 |
| 20260906031629 | 75 | 214 | 0.0 | 0.0 | 0.00 | 0.22 | 0.22 | 99 | 1011.6 |
| 20260906031125 | 75 | 217 | 0.0 | 0.0 | 0.00 | 0.22 | 0.22 | 98 | 1011.6 |
| 20260906030624 | 74 | 219 | 0.0 | 1.0 | 0.00 | 0.22 | 0.22 | 98 | 1011.5 |
| 20260906030120 | 74 | 207 | 0.0 | 0.0 | 0.00 | 0.22 | 0.22 | 99 | 1011.6 |
| 20260906025619 | 75 | 298 | 0.0 | 0.0 | 0.00 | 0.22 | 0.22 | 99 | 1011.6 |
| 20260906025118 | 74 | 263 | 2.0 | 2.0 | 0.00 | 0.22 | 0.22 | 99 | 1011.2 |
| 20260906024613 | 74 | 228 | 0.0 | 0.0 | 0.00 | 0.22 | 0.22 | 98 | 1010.7 |
| 20260906024107 | 74 | 217 | 0.0 | 0.0 | 0.00 | 0.22 | 0.22 | 98 | 1010.9 |
| 20260906023603 | 74 | 217 | 0.0 | 0.0 | 0.00 | 0.22 | 0.22 | 98 | 1010.8 |
| 20260906023057 | 74 | 223 | 0.0 | 0.0 | 0.00 | 0.22 | 0.22 | 98 | 1010.5 |
| 20260906022553 | 74 | 231 | 0.0 | 0.0 | 0.00 | 0.22 | 0.22 | 98 | 1010.3 |
| 20260906022048 | 75 | 216 | 0.0 | 0.0 | 0.00 | 0.22 | 0.22 | 97 | 1010.4 |
| 20260906021544 | 75 | 248 | 0.0 | 0.0 | 0.00 | 0.22 | 0.22 | 97 | 1010.2 |
| 20260906021043 | 75 | 223 | 0.0 | 0.0 | 0.00 | 0.22 | 0.22 | 97 | 1010.3 |
| 20260906020542 | 75 | 217 | 0.0 | 0.0 | 0.00 | 0.22 | 0.22 | 97 | 1010.4 |
| 20260906020037 | 75 | 216 | 0.0 | 0.0 | 0.00 | 0.22 | 0.22 | 97 | 1010.4 |
| 20260906015536 | 76 | 283 | 2.0 | 2.0 | 0.12 | 0.22 | 0.22 | 96 | 1010.2 |
| 20260906015036 | 75 | 288 | 3.0 | 3.0 | 1.28 | 0.22 | 0.22 | 95 | 1010.2 |
| 20260906014531 | 75 | 187 | 2.0 | 3.0 | 1.25 | 0.21 | 0.21 | 94 | 1009.9 |
| 20260906014026 | 79 | 175 | 0.0 | 0.0 | 0.12 | 0.02 | 0.02 | 87 | 1010.1 |
| 20260906013522 | 80 | 207 | 0.0 | 0.0 | 0.00 | 0.00 | 0.00 | 78 | 1010.2 |
| 20260906013017 | 81 | 207 | 0.0 | 0.0 | 0.00 | 0.00 | 0.00 | 78 | 1010.3 |
| 20260906012512 | 82 | 205 | 0.0 | 0.0 | 0.00 | 0.00 | 0.00 | 77 | 1010.3 |
| 20260906012011 | 83 | 198 | 1.0 | 1.0 | 0.00 | 0.00 | 0.00 | 73 | 1010.4 |
| 20260906011508 | 84 | 274 | 0.0 | 0.0 | 0.00 | 0.00 | 0.00 | 72 | 1010.1 |
| 20260906011002 | 84 | 222 | 0.0 | 0.0 | 0.00 | 0.00 | 0.00 | 71 | 1010.2 |
| 20260906010457 | 84 | 220 | 0.0 | 0.0 | 0.00 | 0.00 | 0.00 | 69 | 1009.7 |
| 20260906005954 | 85 | 229 | 0.0 | 0.0 | 0.00 | 0.00 | 0.00 | 69 | 1009.6 |
| 20260906005453 | 85 | 205 | 0.0 | 0.0 | 0.00 | 0.00 | 0.00 | 64 | 1009.8 |
| 20260906004951 | 85 | 207 | 0.0 | 0.0 | 0.00 | 0.00 | 0.00 | 68 | 1009.8 |
| 20260906004446 | 85 | 210 | 0.0 | 0.0 | 0.00 | 0.00 | 0.00 | 69 | 1009.8 |
| 20260906003941 | 86 | 210 | 0.0 | 0.0 | 0.00 | 0.00 | 0.00 | 66 | 1009.8 |
| 20260906003436 | 86 | 211 | 0.0 | 0.0 | 0.00 | 0.00 | 0.00 | 65 | 1010.0 |
| 20260906002931 | 86 | 211 | 0.0 | 0.0 | 0.00 | 0.00 | 0.00 | 65 | 1010.5 |
| 20260906002431 | 86 | 205 | 0.0 | 0.0 | 0.00 | 0.00 | 0.00 | 66 | 1010.3 |
| 20260906001926 | 87 | 193 | 0.0 | 0.0 | 0.00 | 0.00 | 0.00 | 70 | 1010.0 |
| 20260906001422 | 87 | 181 | 2.0 | 2.0 | 0.00 | 0.00 | 0.00 | 67 | 1010.4 |
| 20260906000917 | 86 | 199 | 0.0 | 0.0 | 0.00 | 0.00 | 0.00 | 73 | 1010.1 |
| 20260906000412 | 87 | 198 | 0.0 | 0.0 | 0.00 | 0.00 | 0.00 | 75 | 1010.1 |
| 20260905235907 | 87 | 203 | 0.0 | 0.0 | 0.00 | 0.00 | 0.00 | 75 | 1010.0 |
| 20260905235401 | 87 | 202 | 0.0 | 0.0 | 0.00 | 0.00 | 0.00 | 78 | 1010.0 |
| 20260905234856 | 88 | 220 | 0.0 | 0.0 | 0.00 | 0.00 | 0.00 | 76 | 1009.8 |
| 20260905234351 | 90 | 221 | 0.0 | 0.0 | 0.00 | 0.00 | 0.00 | 69 | 1009.9 |
| 20260905233846 | 91 | 224 | 0.0 | 0.0 | 0.00 | 0.00 | 0.00 | 63 | 1009.9 |
| 20260905233342 | 91 | 224 | 0.0 | 0.0 | 0.00 | 0.00 | 0.00 | 62 | 1009.9 |
| 20260905232841 | 92 | 227 | 0.0 | 0.0 | 0.00 | 0.00 | 0.00 | 61 | 1009.7 |
| 20260905232337 | 92 | 224 | 0.0 | 0.0 | 0.00 | 0.00 | 0.00 | 60 | 1009.8 |
| 20260905231832 | 92 | 232 | 0.0 | 0.0 | 0.00 | 0.00 | 0.00 | 60 | 1009.6 |
| 20260905231333 | 92 | 227 | 0.0 | 0.0 | 0.00 | 0.00 | 0.00 | 60 | 1009.7 |
| 20260905230830 | 92 | 223 | 0.0 | 0.0 | 0.00 | 0.00 | 0.00 | 61 | 1009.5 |
| 20260905230327 | 92 | 244 | 0.0 | 0.0 | 0.00 | 0.00 | 0.00 | 60 | 1009.6 |
| 20260905225826 | 92 | 253 | 0.0 | 0.0 | 0.00 | 0.00 | 0.00 | 61 | 1009.4 |
| 20260905225321 | 93 | 239 | 0.0 | 0.0 | 0.00 | 0.00 | 0.00 | 61 | 1009.6 |
| 20260905224816 | 93 | 225 | 0.0 | 0.0 | 0.00 | 0.00 | 0.00 | 58 | 1009.8 |
| 20260905224312 | 94 | 227 | 0.0 | 0.0 | 0.00 | 0.00 | 0.00 | 56 | 1009.7 |